Retour au catalogue

SL-16 DEB

ActifLEO
NORAD 39865·DEBRIS·🇷🇺 Russia

Lancé Dec 25, 1992 depuis Baikonur Cosmodrome

Loading…

Prochains Passages (prochaines 24 heures)

TLE

FraisSource: Space-Track

Époque: Sep 13, 2026, 07:00 UTC

1 39865U 92093LT  26256.29218522  .00001069  00000-0  36059-3 0  9998
2 39865  71.0115 225.9128 0005191 209.3945 150.6900 14.39242485641908

Suivez SL-16 DEB en temps réel avec AllMySat

Download on the App Store